[[{"header":{"parameterUnit":"m.s-1","parameterCategory":2,"la1":30.2991,"la2":30.254,"lo1":-89.0895,"lo2":-89.0444,"dy":0.0017,"dx":0.0017,"nx":28,"ny":28,"refTime":"2024-08-27T09:00:00:Z","depth":"0","parameterNumber":2,"parameterNumberName":"U-component_of_CURRENTS"},"data":[0,0,0,0,0,0,0,0,0,0,0,0,0,0,0,0,0,0,0,0,0,0,0,0,0,0,0,0,0,0,0,0,0,0,0,0,0,0,0,0,0,0,0,0,0,0,0,0,0,0,0,0,0,0,0,0,0,0,-0.2347,-0.2348,0,-0.2358,-0.2358,-0.2358,-0.2319,-0.2318,-0.2318,-0.2317,-0.2303,-0.2303,-0.2304,0,0,0,0,0,0,0,0,0,0,0,0,0,-0.2291,-0.2292,-0.2347,-0.2348,-0.2348,-0.2358,-0.2358,-0.2358,-0.232,-0.2318,-0.2317,-0.2316,-0.2303,-0.2303,-0.2304,0,0,0,0,0,0,0,0,0,0,0,0,0,-0.2308,-0.2292,-0.2347,-0.2332,-0.2331,-0.2358,-0.2358,-0.2358,-0.232,-0.2318,-0.2317,-0.2316,-0.2302,-0.2303,-0.2304,-0.2337,0,0,-0.2306,-0.2307,0,0,0,0,0,0,0,0,-0.2307,-0.231,-0.2334,-0.2333,-0.2332,-0.2338,-0.2333,-0.2351,-0.232,-0.2322,-0.2317,-0.2315,-0.2315,-0.2315,-0.2317,-0.2336,-0.2336,-0.2306,-0.2307,-0.2307,-0.2307,0,0,0,0,0,0,0,-0.2306,-0.2309,-0.2349,-0.2334,-0.2333,-0.2324,-0.2324,-0.2336,-0.2324,-0.2321,-0.2319,-0.2325,-0.2314,-0.2316,-0.2316,-0.2335,-0.2306,-0.2307,-0.2307,-0.2308,-0.2353,-0.2354,0,0,0,0,0,0,-0.2311,-0.2308,-0.2349,-0.235,-0.2318,-0.2326,-0.2327,-0.2336,-0.2324,-0.2322,-0.2326,-0.2323,-0.2315,-0.2315,-0.2315,-0.2339,-0.2307,-0.2308,-0.2308,-0.2353,-0.2353,-0.2354,0,0,0,0,0,0,-0.231,-0.2315,-0.2349,-0.2331,-0.2334,-0.2329,-0.2339,-0.2337,-0.2333,-0.2328,-0.2324,-0.2324,-0.2314,-0.2314,-0.232,-0.2338,-0.2308,-0.2309,-0.2352,-0.2353,-0.2354,-0.2394,0,0,0,0,0,0,-0.2308,-0.2315,-0.232,-0.2331,-0.2336,-0.2367,-0.2341,-0.2338,-0.234,-0.2336,-0.2326,-0.2324,-0.2313,-0.2319,-0.2321,-0.2339,-0.2309,-0.2351,-0.2352,-0.2353,-0.2392,-0.2397,-0.2401,0,0,0,0,0,-0.2306,-0.2321,-0.232,-0.2325,-0.2345,-0.2368,-0.237,-0.2358,-0.2342,-0.2348,-0.2335,-0.2324,-0.2329,-0.232,-0.2322,-0.2341,-0.235,-0.2352,-0.2353,-0.239,-0.2396,-0.2401,0,0,0,0,0,0,-0.2295,-0.2319,-0.2318,-0.2338,-0.2353,-0.2362,-0.2365,-0.2363,-0.2359,-0.2349,-0.2336,-0.2334,-0.2346,-0.2339,-0.233,-0.2357,-0.2337,-0.234,-0.2365,-0.237,-0.2374,-0.2374,-0.231,0,0,0,0,0,-0.2299,-0.2313,-0.2336,-0.2349,-0.2358,-0.2363,-0.2369,-0.2368,-0.2369,-0.2365,-0.2359,-0.2353,-0.2358,-0.2359,-0.2362,-0.2381,-0.2361,-0.2393,-0.2397,-0.2401,-0.2402,-0.2392,-0.2395,-0.236,-0.236,-0.236,0,0,-0.2296,-0.2311,-0.2318,-0.2347,-0.2353,-0.2379,-0.2362,-0.2376,-0.2393,-0.2366,-0.2376,-0.237,-0.2367,-0.2383,-0.2388,-0.2377,-0.2399,-0.2403,-0.2406,-0.2405,-0.2394,-0.2397,-0.24,-0.2361,-0.2361,-0.2361,0,0,-0.2304,-0.2313,-0.2332,-0.2352,-0.2374,-0.2384,-0.2391,-0.2407,-0.2405,-0.2424,-0.2406,-0.2408,-0.2418,-0.2417,-0.2418,-0.2451,-0.2424,-0.2453,-0.2476,-0.2466,-0.2468,-0.2471,-0.2442,-0.2441,-0.2454,-0.2454,-0.2455,0,-0.23,-0.2326,-0.234,-0.2367,-0.2383,-0.239,-0.2416,-0.2429,-0.2442,-0.2444,-0.243,-0.2437,-0.2435,-0.2452,-0.2462,-0.2462,-0.2442,-0.2457,-0.2471,-0.2473,-0.2474,-0.2444,-0.2443,-0.2457,-0.2456,-0.2456,-0.2456,0,-0.2325,-0.2348,-0.236,-0.2398,-0.242,-0.244,-0.2468,-0.2482,-0.2481,-0.2488,-0.2498,-0.2491,-0.249,-0.2497,-0.2491,-0.2506,-0.2483,-0.2478,-0.2457,-0.248,-0.2447,-0.2444,-0.246,-0.2459,-0.2458,-0.2458,0,0,-0.2299,-0.2366,-0.2366,-0.2388,-0.2435,-0.2453,-0.2491,-0.2521,-0.2534,-0.254,-0.2551,-0.2561,-0.2545,-0.2546,-0.2537,-0.2532,-0.2527,-0.2512,-0.2511,-0.2481,-0.2488,-0.2418,-0.2408,-0.2523,-0.2523,-0.2523,-0.2457,0,-0.2308,-0.236,-0.2394,-0.2437,-0.2464,-0.2494,-0.2528,-0.2557,-0.2569,-0.2583,-0.2577,-0.2583,-0.2568,-0.2564,-0.256,-0.2541,-0.2524,-0.2544,-0.2472,-0.2469,-0.2403,-0.2405,-0.2324,-0.2254,-0.2455,-0.2454,-0.2454,0,-0.2311,-0.2346,-0.2394,-0.2454,-0.2468,-0.2498,-0.2538,-0.2571,-0.2604,-0.2612,-0.2616,-0.261,-0.2611,-0.2592,-0.2557,-0.2569,-0.253,-0.2508,-0.2505,-0.2424,-0.2395,-0.2265,-0.2242,-0.2221,-0.245,-0.2451,-0.2451,0,-0.2267,-0.2339,-0.2372,-0.2393,-0.247,-0.2489,-0.2523,-0.2568,-0.2586,-0.2621,-0.2627,-0.2631,-0.2615,-0.259,-0.2544,-0.2551,-0.2493,-0.2495,-0.239,-0.2384,-0.2292,-0.2277,-0.2236,-0.2459,-0.2459,-0.2459,-0.2459,0,-0.2253,-0.2273,-0.2352,-0.2367,-0.2396,-0.2463,-0.2489,-0.2527,-0.2575,-0.259,-0.2624,-0.2624,-0.2613,-0.2581,-0.2547,-0.2453,-0.2489,-0.2387,-0.2363,-0.2302,-0.229,-0.2248,-0.2271,-0.2457,-0.2457,-0.2458,-0.2458,0,-0.2188,-0.2247,-0.2279,-0.2356,-0.2375,-0.2388,-0.2453,-0.2474,-0.2533,-0.2553,-0.2562,-0.2601,-0.256,-0.2531,-0.2481,-0.2431,-0.2326,-0.2325,-0.2244,-0.2211,-0.2092,-0.212,-0.2057,-0.1995,-0.2199,-0.2197,-0.2195,0,-0.2156,-0.217,-0.2239,-0.2253,-0.2281,-0.2317,-0.2342,-0.2426,-0.2455,-0.2529,-0.2532,-0.252,-0.2483,-0.2388,-0.2317,-0.2226,-0.2226,-0.2094,-0.2095,-0.2066,-0.2081,-0.2109,-0.2064,-0.1987,-0.1983,-0.198,-0.1978,0,-0.2075,-0.21,-0.2122,-0.2158,-0.2185,-0.2213,-0.2263,-0.2279,-0.2377,-0.2396,-0.2412,-0.2392,-0.233,-0.2209,-0.2107,-0.2049,-0.2051,-0.2033,-0.2028,-0.1928,-0.1932,-0.1866,-0.2046,-0.1954,-0.1956,-0.1958,-0.1959,-0.196,-0.1987,-0.1982,-0.2017,-0.2035,-0.2068,-0.2083,-0.206,-0.2132,-0.2142,-0.2151,-0.2232,-0.2176,-0.2134,-0.198,-0.1913,-0.1791,-0.1854,-0.1742,-0.1782,-0.1816,-0.1749,-0.1864,-0.1734,-0.1735,-0.1736,-0.1737,-0.1738,0,-0.187,-0.188,-0.1895,-0.1906,-0.1887,-0.1952,-0.198,-0.1941,-0.1905,-0.1963,-0.1943,-0.1921,-0.18,-0.1767,-0.1666,-0.1578,-0.1545,-0.1543,-0.1576,-0.1542,-0.1652,-0.1634,-0.1444,-0.1444,-0.1444,-0.1444,-0.1444,-0.1444,-0.1807,-0.1775,-0.1788,-0.1711,-0.1717,-0.1641,-0.1621,-0.1599,-0.1615,-0.1578,-0.1596,-0.1638,-0.1641,-0.1734,-0.1596,-0.1502,-0.1464,-0.1424,-0.144,-0.1543,-0.1566,-0.1587,-0.1574,-0.1376,-0.1376,-0.1273,-0.1272,-0.1272]},{"header":{"parameterUnit":"m.s-1","parameterCategory":2,"la1":30.2991,"la2":30.254,"lo1":-89.0895,"lo2":-89.0444,"dy":0.0017,"dx":0.0017,"nx":28,"ny":28,"refTime":"2024-08-27T09:00:00:Z","depth":"0","parameterNumber":3,"parameterNumberName":"V-component_of_CURRENTS"},"data":[0,0,0,0,0,0,0,0,0,0,0,0,0,0,0,0,0,0,0,0,0,0,0,0,0,0,0,0,0,0,0,0,0,0,0,0,0,0,0,0,0,0,0,0,0,0,0,0,0,0,0,0,0,0,0,0,0,0,-0.0305,-0.0305,0,-0.024,-0.0239,-0.0238,-0.0186,-0.0186,-0.0185,-0.0185,-0.0066,-0.0063,-0.0061,0,0,0,0,0,0,0,0,0,0,0,0,0,-0.0346,-0.0346,-0.0305,-0.0305,-0.0304,-0.024,-0.0239,-0.0238,-0.0186,-0.0186,-0.0185,-0.0185,-0.0067,-0.0064,-0.006,0,0,0,0,0,0,0,0,0,0,0,0,0,-0.0308,-0.0345,-0.0305,-0.0271,-0.0268,-0.024,-0.0239,-0.0237,-0.0186,-0.0186,-0.0185,-0.0185,-0.0068,-0.0064,-0.006,-0.0045,0,0,-0.0047,-0.0045,0,0,0,0,0,0,0,0,-0.031,-0.0306,-0.0277,-0.0274,-0.027,-0.0222,-0.0209,-0.0171,-0.0187,-0.0216,-0.0185,-0.0184,-0.0115,-0.0107,-0.0094,-0.004,-0.0035,-0.0047,-0.0044,-0.0042,-0.0041,0,0,0,0,0,0,0,-0.0313,-0.0309,-0.0278,-0.0276,-0.0272,-0.0246,-0.024,-0.0202,-0.0167,-0.0213,-0.021,-0.0205,-0.0112,-0.0099,-0.0091,-0.0033,-0.0047,-0.0043,-0.004,-0.0039,0.0048,0.0048,0,0,0,0,0,0,-0.0326,-0.0311,-0.028,-0.0276,-0.029,-0.0246,-0.0239,-0.0237,-0.0169,-0.0159,-0.0205,-0.0203,-0.0106,-0.0096,-0.0087,-0.0064,-0.0042,-0.0038,-0.0036,0.0049,0.0048,0.0048,0,0,0,0,0,0,-0.0328,-0.0324,-0.0283,-0.0293,-0.0286,-0.0246,-0.0243,-0.0236,-0.0222,-0.0163,-0.0152,-0.0199,-0.0105,-0.0092,-0.0057,-0.0059,-0.0037,-0.0033,0.0049,0.0049,0.0048,-0.002,0,0,0,0,0,0,-0.0329,-0.0325,-0.0329,-0.0294,-0.0286,-0.0273,-0.0244,-0.0235,-0.022,-0.0216,-0.0155,-0.0143,-0.0104,-0.0063,-0.0052,-0.0053,-0.0029,0.0049,0.0049,0.0048,-0.0017,-0.0023,-0.0027,0,0,0,0,0,-0.0331,-0.0342,-0.033,-0.0326,-0.0293,-0.0273,-0.0267,-0.0235,-0.0221,-0.0219,-0.0178,-0.0145,-0.0058,-0.006,-0.0047,-0.0047,0.0049,0.0049,0.0048,-0.0015,-0.0022,-0.0027,0,0,0,0,0,0,-0.0361,-0.0337,-0.0323,-0.0326,-0.0304,-0.0265,-0.0263,-0.0241,-0.0208,-0.0203,-0.0147,-0.0133,-0.0103,-0.0066,-0.007,-0.0023,0.0001,0.0003,-0.0052,-0.0057,-0.0062,-0.0072,-0.0026,0,0,0,0,0,-0.0371,-0.0373,-0.0342,-0.0345,-0.0337,-0.0301,-0.029,-0.0269,-0.0236,-0.0221,-0.0179,-0.0134,-0.0096,-0.0071,-0.0034,-0.0006,0.0037,0.0003,-0.0002,-0.0006,-0.0006,0.0053,0.0054,0.0047,0.0047,0.0047,0,0,-0.0384,-0.0371,-0.0372,-0.0352,-0.0332,-0.033,-0.0293,-0.0281,-0.0275,-0.0212,-0.0192,-0.0151,-0.0094,-0.0066,-0.0048,-0.0033,0.0017,-0.0007,-0.0011,-0.0008,0.0053,0.0053,0.0054,0.0046,0.0046,0.0046,0,0,-0.0417,-0.0399,-0.0415,-0.0401,-0.038,-0.0354,-0.0355,-0.0319,-0.0299,-0.0275,-0.023,-0.019,-0.0135,-0.0092,-0.0064,-0.0071,-0.0014,-0.0061,-0.0087,-0.003,-0.0029,-0.0027,0.0022,0.0028,-0.0059,-0.0059,-0.0059,0,-0.0435,-0.0448,-0.0416,-0.0427,-0.0421,-0.0371,-0.0384,-0.0355,-0.0313,-0.0294,-0.0278,-0.0191,-0.0146,-0.0099,-0.0104,-0.0081,-0.0043,-0.0072,-0.0036,-0.0034,-0.0031,0.0019,0.0027,-0.0062,-0.0062,-0.0061,-0.0061,0,-0.0477,-0.0488,-0.0495,-0.0491,-0.048,-0.0482,-0.0441,-0.0421,-0.0389,-0.0355,-0.0307,-0.0243,-0.0188,-0.017,-0.0138,-0.0098,-0.0076,-0.0054,-0.0024,-0.0034,0.0019,0.0028,-0.0067,-0.0066,-0.0065,-0.0064,0,0,-0.0521,-0.0526,-0.0531,-0.0542,-0.0515,-0.0512,-0.0495,-0.0463,-0.0446,-0.0394,-0.0365,-0.0299,-0.0256,-0.0221,-0.017,-0.012,-0.0072,-0.0086,-0.0081,-0.0042,0.005,0.0095,0.0111,-0.0045,-0.0043,-0.0042,0.0076,0,-0.0566,-0.0608,-0.0591,-0.0622,-0.0637,-0.0587,-0.0574,-0.0535,-0.0486,-0.0443,-0.0363,-0.032,-0.0276,-0.025,-0.0193,-0.0098,-0.0049,-0.0107,0.0058,0.0063,0.0102,0.0123,0.0168,0.028,0.0086,0.0088,0.0089,0,-0.0616,-0.0637,-0.0681,-0.0687,-0.0688,-0.069,-0.0654,-0.0636,-0.0554,-0.0514,-0.0446,-0.0381,-0.0295,-0.0263,-0.0103,-0.0141,-0.0057,0.0015,0.0022,0.0097,0.0128,0.0262,0.0306,0.0461,0.0104,0.0103,0.0102,0,-0.067,-0.0701,-0.0739,-0.0742,-0.0735,-0.0736,-0.0722,-0.0659,-0.0639,-0.0558,-0.0525,-0.0413,-0.0351,-0.023,-0.0077,-0.009,0.0102,0.0108,0.0228,0.0232,0.0321,0.033,0.0533,0.0212,0.0212,0.0211,0.0211,0,-0.0727,-0.0758,-0.0768,-0.079,-0.0823,-0.0793,-0.0799,-0.0762,-0.07,-0.067,-0.0568,-0.0506,-0.034,-0.0208,-0.0081,0.0116,0.0107,0.0234,0.0272,0.0297,0.0303,0.0482,0.0533,0.0216,0.0215,0.0214,0.0213,0,-0.0783,-0.079,-0.0836,-0.0847,-0.0853,-0.0875,-0.0864,-0.0859,-0.0789,-0.0743,-0.0721,-0.0567,-0.0386,-0.021,0.0002,0.0117,0.0397,0.0355,0.0369,0.0408,0.0652,0.0696,0.093,0.1025,0.0507,0.0509,0.0511,0,-0.0816,-0.0846,-0.0888,-0.0918,-0.0928,-0.0951,-0.0961,-0.0913,-0.0895,-0.077,-0.0745,-0.0569,-0.0419,-0.0083,0.0151,0.0397,0.0501,0.0564,0.055,0.0689,0.0767,0.0796,0.086,0.064,0.0642,0.0644,0.0646,0,-0.0874,-0.0885,-0.0922,-0.0989,-0.102,-0.105,-0.1054,-0.1048,-0.097,-0.0898,-0.0755,-0.0625,-0.0293,0.0026,0.0335,0.0478,0.0692,0.0614,0.0769,0.0901,0.0937,0.1039,0.0528,0.0665,0.0663,0.0661,0.066,0.066,-0.0905,-0.0949,-0.0996,-0.1054,-0.1095,-0.1124,-0.1127,-0.1094,-0.104,-0.089,-0.0772,-0.0527,-0.0078,0.0382,0.0554,0.0921,0.0865,0.1018,0.1064,0.1083,0.1174,0.0696,0.0865,0.0864,0.0864,0.0863,0.0863,0,-0.0943,-0.0991,-0.1057,-0.1119,-0.1163,-0.1169,-0.1166,-0.1122,-0.1033,-0.0862,-0.0689,-0.0184,0.0255,0.0659,0.1164,0.1358,0.1405,0.145,0.1513,0.156,0.1162,0.1166,0.1395,0.1395,0.1395,0.1395,0.1395,0.1394,-0.0964,-0.1036,-0.1073,-0.1154,-0.1191,-0.1207,-0.1191,-0.1096,-0.0956,-0.0616,-0.032,-0.0088,0.0478,0.1279,0.1736,0.177,0.1947,0.1931,0.2019,0.1749,0.1712,0.1676,0.1696,0.2033,0.2033,0.2416,0.2419,0.2422]}],[{"header":{"parameterUnit":"m.s-1","parameterCategory":2,"la1":30.2991,"la2":30.254,"lo1":-89.0895,"lo2":-89.0444,"dy":0.0017,"dx":0.0017,"nx":28,"ny":28,"refTime":"2024-08-27T09:00:00:Z","depth":"2","parameterNumber":2,"parameterNumberName":"U-component_of_CURRENTS"},"data":[0,0,0,0,0,0,0,0,0,0,0,0,0,0,0,0,0,0,0,0,0,0,0,0,0,0,0,0,0,0,0,0,0,0,0,0,0,0,0,0,0,0,0,0,0,0,0,0,0,0,0,0,0,0,0,0,0,0,-0.214,-0.214,0,-0.2162,-0.2162,-0.2162,-0.2137,-0.2136,-0.2135,-0.2135,-0.2134,-0.2135,-0.2136,0,0,0,0,0,0,0,0,0,0,0,0,0,-0.208,-0.2081,-0.214,-0.214,-0.2141,-0.2162,-0.2162,-0.2162,-0.2137,-0.2136,-0.2135,-0.2134,-0.2134,-0.2135,-0.2136,0,0,0,0,0,0,0,0,0,0,0,0,0,-0.2103,-0.2081,-0.214,-0.2132,-0.2132,-0.2162,-0.2162,-0.2162,-0.2137,-0.2136,-0.2135,-0.2134,-0.2134,-0.2135,-0.2136,-0.2166,0,0,-0.2139,-0.214,0,0,0,0,0,0,0,0,-0.2101,-0.2105,-0.2133,-0.2133,-0.2132,-0.2147,-0.2141,-0.2163,-0.2137,-0.2133,-0.2135,-0.2133,-0.2139,-0.2139,-0.2144,-0.2166,-0.2166,-0.2139,-0.214,-0.214,-0.2141,0,0,0,0,0,0,0,-0.21,-0.2104,-0.2146,-0.2133,-0.2133,-0.213,-0.2131,-0.2145,-0.214,-0.2133,-0.2132,-0.2138,-0.2138,-0.2143,-0.2143,-0.2166,-0.2139,-0.214,-0.2141,-0.2141,-0.2195,-0.2195,0,0,0,0,0,0,-0.2103,-0.2102,-0.2146,-0.2147,-0.2116,-0.2132,-0.2133,-0.2142,-0.214,-0.214,-0.2139,-0.2137,-0.2141,-0.2142,-0.2143,-0.2172,-0.214,-0.2141,-0.2142,-0.2194,-0.2195,-0.2196,0,0,0,0,0,0,-0.2101,-0.2106,-0.2145,-0.2126,-0.2131,-0.2134,-0.2144,-0.2143,-0.2145,-0.2145,-0.2144,-0.2142,-0.214,-0.2142,-0.2153,-0.2171,-0.2142,-0.2143,-0.2193,-0.2194,-0.2195,-0.2233,0,0,0,0,0,0,-0.2099,-0.2106,-0.2112,-0.2127,-0.2133,-0.2166,-0.2145,-0.2144,-0.2152,-0.2149,-0.2148,-0.2146,-0.214,-0.2152,-0.2154,-0.2172,-0.2144,-0.2192,-0.2193,-0.2195,-0.223,-0.2235,-0.2239,0,0,0,0,0,-0.2097,-0.2111,-0.2112,-0.2117,-0.2141,-0.2167,-0.217,-0.2166,-0.2153,-0.2161,-0.2155,-0.2146,-0.2162,-0.2153,-0.2156,-0.2175,-0.2191,-0.2193,-0.2195,-0.2229,-0.2234,-0.2239,0,0,0,0,0,0,-0.2085,-0.211,-0.2111,-0.2131,-0.2149,-0.2163,-0.2169,-0.2171,-0.2174,-0.2167,-0.2159,-0.2158,-0.2176,-0.2172,-0.2162,-0.2194,-0.2175,-0.2177,-0.22,-0.2205,-0.2209,-0.2208,-0.2145,0,0,0,0,0,-0.2088,-0.2102,-0.2128,-0.2141,-0.2151,-0.2161,-0.217,-0.2173,-0.218,-0.2179,-0.2179,-0.2179,-0.2188,-0.2191,-0.2198,-0.222,-0.2201,-0.2233,-0.2237,-0.224,-0.2241,-0.2233,-0.2236,-0.2201,-0.2201,-0.2201,0,0,-0.2086,-0.2101,-0.2108,-0.2139,-0.2148,-0.2175,-0.2163,-0.2181,-0.22,-0.2181,-0.2198,-0.2196,-0.2197,-0.2217,-0.2225,-0.2214,-0.2239,-0.2243,-0.2246,-0.2244,-0.2235,-0.2238,-0.2241,-0.2203,-0.2202,-0.2202,0,0,-0.2093,-0.2104,-0.2121,-0.2143,-0.2168,-0.2181,-0.2189,-0.221,-0.2214,-0.2238,-0.2226,-0.2232,-0.2249,-0.2251,-0.2254,-0.2288,-0.2263,-0.2292,-0.2312,-0.2304,-0.2307,-0.2309,-0.2282,-0.2281,-0.2293,-0.2293,-0.2293,0,-0.209,-0.2115,-0.213,-0.2158,-0.2174,-0.2187,-0.2213,-0.223,-0.2251,-0.2256,-0.2246,-0.2264,-0.2266,-0.2286,-0.2297,-0.2298,-0.228,-0.2293,-0.2309,-0.2311,-0.2312,-0.2284,-0.2283,-0.2295,-0.2294,-0.2294,-0.2294,0,-0.2114,-0.2137,-0.2148,-0.2186,-0.2211,-0.2232,-0.2264,-0.2282,-0.2287,-0.2298,-0.2315,-0.2315,-0.232,-0.2328,-0.2325,-0.2341,-0.232,-0.2316,-0.2295,-0.2318,-0.2287,-0.2285,-0.2298,-0.2297,-0.2296,-0.2296,0,0,-0.209,-0.2153,-0.2154,-0.2176,-0.2225,-0.2245,-0.2285,-0.2318,-0.2334,-0.2349,-0.2365,-0.2381,-0.237,-0.2373,-0.2367,-0.2365,-0.2362,-0.2347,-0.2346,-0.2317,-0.2328,-0.2254,-0.2244,-0.2359,-0.2359,-0.2359,-0.2298,0,-0.2098,-0.2148,-0.2181,-0.2224,-0.2251,-0.2283,-0.2319,-0.2352,-0.2369,-0.239,-0.239,-0.2403,-0.2391,-0.239,-0.2389,-0.2374,-0.2359,-0.2377,-0.2312,-0.231,-0.2239,-0.2241,-0.2093,-0.2021,-0.2296,-0.2296,-0.2296,0,-0.2102,-0.2135,-0.2181,-0.2241,-0.2255,-0.2286,-0.2331,-0.2365,-0.2403,-0.2416,-0.2426,-0.2426,-0.2432,-0.2416,-0.2388,-0.2398,-0.2364,-0.2346,-0.2343,-0.2259,-0.2233,-0.2045,-0.2007,-0.2292,-0.2292,-0.2292,-0.2293,0,-0.2062,-0.213,-0.2162,-0.2183,-0.2258,-0.228,-0.2314,-0.2363,-0.2383,-0.2424,-0.2433,-0.2444,-0.2435,-0.2414,-0.2374,-0.2382,-0.2332,-0.2334,-0.223,-0.2224,-0.2077,-0.2057,-0.2303,-0.2303,-0.2303,-0.2304,-0.2304,0,-0.2048,-0.2069,-0.2145,-0.216,-0.2191,-0.2257,-0.2285,-0.2325,-0.2375,-0.239,-0.2431,-0.2433,-0.2433,-0.2407,-0.2377,-0.2288,-0.2326,-0.2226,-0.2204,-0.2085,-0.2068,-0.229,-0.2289,-0.2301,-0.2302,-0.2302,-0.2303,0,-0.1989,-0.2044,-0.2077,-0.2152,-0.2171,-0.2188,-0.2252,-0.2272,-0.2334,-0.2355,-0.2366,-0.241,-0.2376,-0.2356,-0.2314,-0.2267,-0.2211,-0.2167,-0.2018,-0.1979,-0.2108,-0.211,-0.2047,-0.2044,-0.2041,-0.2039,-0.2037,0,-0.1961,-0.1975,-0.2042,-0.2055,-0.2084,-0.2122,-0.2145,-0.2228,-0.2254,-0.2328,-0.233,-0.2327,-0.2289,-0.2205,-0.2139,-0.2052,-0.212,-0.1865,-0.1856,-0.2097,-0.2082,-0.2088,-0.2094,-0.167,-0.1666,-0.1662,-0.1659,0,-0.1888,-0.1913,-0.1935,-0.1967,-0.1992,-0.2019,-0.2065,-0.2079,-0.2172,-0.2189,-0.2203,-0.2182,-0.2126,-0.1972,-0.1879,-0.1818,-0.1874,-0.1783,-0.2063,-0.1766,-0.1739,-0.1726,-0.1744,-0.1624,-0.1628,-0.163,-0.1632,-0.1634,-0.181,-0.1806,-0.1838,-0.1852,-0.1883,-0.1892,-0.1865,-0.1927,-0.1931,-0.1927,-0.201,-0.1922,-0.1912,-0.1684,-0.1588,-0.1516,-0.1647,-0.1571,-0.1584,-0.1601,-0.1576,-0.1547,-0.139,-0.1392,-0.1394,-0.1396,-0.1397,0,-0.1705,-0.1712,-0.1723,-0.1731,-0.1708,-0.1769,-0.1786,-0.1735,-0.1687,-0.1715,-0.1688,-0.1505,-0.1405,-0.1392,-0.1231,-0.1197,-0.1197,-0.114,-0.1145,-0.118,-0.121,-0.1167,-0.0872,-0.087,-0.0868,-0.0867,0,0,-0.1649,-0.1616,-0.1622,-0.1543,-0.1547,-0.1467,-0.1441,-0.139,-0.1375,-0.1274,-0.1229,-0.1329,-0.1359,-0.112,-0.1064,-0.0938,-0.1047,-0.0888,-0.1312,-0.1353,-0.1382,-0.1463,-0.1436,0,0,0,0,0]},{"header":{"parameterUnit":"m.s-1","parameterCategory":2,"la1":30.2991,"la2":30.254,"lo1":-89.0895,"lo2":-89.0444,"dy":0.0017,"dx":0.0017,"nx":28,"ny":28,"refTime":"2024-08-27T09:00:00:Z","depth":"2","parameterNumber":3,"parameterNumberName":"V-component_of_CURRENTS"},"data":[0,0,0,0,0,0,0,0,0,0,0,0,0,0,0,0,0,0,0,0,0,0,0,0,0,0,0,0,0,0,0,0,0,0,0,0,0,0,0,0,0,0,0,0,0,0,0,0,0,0,0,0,0,0,0,0,0,0,-0.0243,-0.0243,0,-0.0185,-0.0184,-0.0183,-0.0137,-0.0136,-0.0136,-0.0135,-0.0026,-0.0023,-0.0021,0,0,0,0,0,0,0,0,0,0,0,0,0,-0.0276,-0.0276,-0.0243,-0.0243,-0.0242,-0.0185,-0.0184,-0.0183,-0.0137,-0.0136,-0.0136,-0.0135,-0.0027,-0.0024,-0.0021,0,0,0,0,0,0,0,0,0,0,0,0,0,-0.0243,-0.0276,-0.0243,-0.0213,-0.021,-0.0185,-0.0184,-0.0183,-0.0137,-0.0136,-0.0136,-0.0135,-0.0028,-0.0024,-0.002,-0.0007,0,0,-0.0008,-0.0007,0,0,0,0,0,0,0,0,-0.0245,-0.0242,-0.0218,-0.0215,-0.0211,-0.0169,-0.0156,-0.0122,-0.0137,-0.0163,-0.0135,-0.0135,-0.007,-0.0063,-0.0052,-0.0002,0.0003,-0.0008,-0.0006,-0.0004,-0.0003,0,0,0,0,0,0,0,-0.0248,-0.0244,-0.0219,-0.0217,-0.0213,-0.0189,-0.0184,-0.0149,-0.0118,-0.0161,-0.0157,-0.0153,-0.0068,-0.0056,-0.0049,0.0004,-0.0008,-0.0005,-0.0002,-0.0001,0.0078,0.0078,0,0,0,0,0,0,-0.026,-0.0247,-0.0221,-0.0217,-0.0229,-0.0189,-0.0184,-0.0182,-0.012,-0.0111,-0.0154,-0.0151,-0.0063,-0.0053,-0.0045,-0.0023,-0.0004,-0.0,0.0002,0.0078,0.0078,0.0078,0,0,0,0,0,0,-0.0261,-0.0259,-0.0223,-0.0231,-0.0225,-0.019,-0.0188,-0.0181,-0.0168,-0.0115,-0.0105,-0.0149,-0.0062,-0.005,-0.0017,-0.0019,0.0001,0.0005,0.0079,0.0078,0.0078,0.0018,0,0,0,0,0,0,-0.0262,-0.0259,-0.0264,-0.0232,-0.0225,-0.0214,-0.0188,-0.018,-0.0167,-0.0164,-0.0107,-0.0097,-0.0061,-0.0024,-0.0014,-0.0013,0.0008,0.0079,0.0079,0.0078,0.0021,0.0016,0.0012,0,0,0,0,0,-0.0264,-0.0275,-0.0264,-0.0261,-0.0232,-0.0215,-0.0209,-0.0181,-0.0168,-0.0167,-0.0129,-0.0098,-0.0019,-0.0021,-0.0009,-0.0007,0.0079,0.0079,0.0078,0.0022,0.0017,0.0012,0,0,0,0,0,0,-0.0292,-0.027,-0.0258,-0.0262,-0.0242,-0.0208,-0.0206,-0.0186,-0.0156,-0.0152,-0.01,-0.0087,-0.0061,-0.0027,-0.003,0.0014,0.0035,0.0037,-0.0011,-0.0016,-0.002,-0.003,0.0011,0,0,0,0,0,-0.0301,-0.0303,-0.0276,-0.028,-0.0273,-0.024,-0.023,-0.0211,-0.0181,-0.0168,-0.013,-0.0088,-0.0054,-0.003,0.0003,0.0029,0.0068,0.0037,0.0033,0.0029,0.0029,0.0085,0.0085,0.0076,0.0076,0.0076,0,0,-0.0313,-0.0302,-0.0303,-0.0286,-0.0268,-0.0265,-0.0233,-0.0223,-0.0216,-0.016,-0.0141,-0.0104,-0.0052,-0.0026,-0.001,0.0004,0.0051,0.0028,0.0025,0.0027,0.0084,0.0085,0.0086,0.0076,0.0076,0.0076,0,0,-0.0343,-0.0329,-0.0342,-0.033,-0.031,-0.0288,-0.0288,-0.0256,-0.0238,-0.0216,-0.0175,-0.0139,-0.0089,-0.005,-0.0023,-0.003,0.0022,-0.0022,-0.0043,0.001,0.0012,0.0013,0.0056,0.0062,-0.0018,-0.0018,-0.0018,0,-0.036,-0.0371,-0.0343,-0.0352,-0.0346,-0.0302,-0.0313,-0.0287,-0.0249,-0.0232,-0.0219,-0.014,-0.0099,-0.0055,-0.0059,-0.0038,-0.0004,-0.0029,0.0005,0.0007,0.001,0.0054,0.0061,-0.0021,-0.0021,-0.0021,-0.002,0,-0.0396,-0.0405,-0.0412,-0.0407,-0.0396,-0.0398,-0.0361,-0.0345,-0.0316,-0.0285,-0.0243,-0.0185,-0.0135,-0.0118,-0.009,-0.0051,-0.0033,-0.0012,0.0016,0.0007,0.0054,0.0063,-0.0025,-0.0024,-0.0024,-0.0023,0,0,-0.0437,-0.0439,-0.0443,-0.0453,-0.0426,-0.0424,-0.0407,-0.0379,-0.0366,-0.0319,-0.0294,-0.0232,-0.0195,-0.0162,-0.0116,-0.0069,-0.0024,-0.0038,-0.0034,0.0001,0.0087,0.012,0.0133,0.0002,0.0003,0.0004,0.0109,0,-0.0475,-0.0512,-0.0494,-0.052,-0.0533,-0.0489,-0.0477,-0.0442,-0.04,-0.0363,-0.029,-0.0252,-0.0212,-0.0189,-0.0134,-0.005,-0.0003,-0.0055,0.0094,0.0098,0.0126,0.0144,0.0119,0.0212,0.0118,0.012,0.0121,0,-0.0519,-0.0537,-0.0574,-0.0579,-0.0579,-0.0581,-0.055,-0.0535,-0.0464,-0.0429,-0.0368,-0.0308,-0.0229,-0.0199,-0.0052,-0.0087,-0.001,0.0056,0.0062,0.0121,0.0148,0.0208,0.0232,0.0136,0.0135,0.0134,0.0133,0,-0.0568,-0.0594,-0.0626,-0.0629,-0.0621,-0.0623,-0.0611,-0.0556,-0.054,-0.0469,-0.0443,-0.0339,-0.0283,-0.017,-0.0031,-0.0041,0.0132,0.014,0.0243,0.0246,0.0269,0.0272,0.0238,0.0238,0.0238,0.0237,0.0237,0,-0.0618,-0.0646,-0.0654,-0.0674,-0.0705,-0.0676,-0.0685,-0.0654,-0.0601,-0.0578,-0.0483,-0.0431,-0.0274,-0.0154,-0.0036,0.0139,0.0135,0.0247,0.0281,0.0247,0.0246,0.0216,0.0212,0.0241,0.024,0.024,0.0239,0,-0.0669,-0.0674,-0.0715,-0.0726,-0.0732,-0.0754,-0.0748,-0.0746,-0.0687,-0.0651,-0.0631,-0.0491,-0.0329,-0.0165,0.0031,0.0135,0.0293,0.0351,0.0296,0.0322,0.0369,0.036,0.0477,0.0479,0.0481,0.0483,0.0484,0,-0.0699,-0.0725,-0.0764,-0.0794,-0.0803,-0.0827,-0.0839,-0.0798,-0.0785,-0.068,-0.0661,-0.0503,-0.0372,-0.0068,0.014,0.0363,0.0352,0.0457,0.0439,0.0375,0.0396,0.0385,0.0375,0.0443,0.0444,0.0445,0.0445,0,-0.0752,-0.0763,-0.0797,-0.086,-0.0892,-0.0923,-0.093,-0.0928,-0.0863,-0.0803,-0.0683,-0.0569,-0.0279,-0.0023,0.0255,0.0376,0.0421,0.0479,0.0447,0.0383,0.0351,0.0369,0.0359,0.0452,0.0451,0.0451,0.045,0.045,-0.0784,-0.0824,-0.0868,-0.0924,-0.0964,-0.0995,-0.1003,-0.0977,-0.0934,-0.0812,-0.0706,-0.0501,-0.0267,0.0146,0.0342,0.0517,0.0507,0.0547,0.0542,0.0536,0.051,0.0483,0.0603,0.0603,0.0603,0.0604,0.0604,0,-0.0823,-0.0867,-0.0929,-0.0989,-0.1034,-0.104,-0.1043,-0.1009,-0.0937,-0.08,-0.0653,-0.0377,-0.0092,0.0147,0.0435,0.0603,0.0576,0.062,0.0553,0.0546,0.054,0.051,0.0606,0.0606,0.0607,0.0607,0,0,-0.0845,-0.0912,-0.0945,-0.1027,-0.1065,-0.1088,-0.1078,-0.0997,-0.0884,-0.0724,-0.0564,-0.0359,-0.0071,0.0136,0.0342,0.0487,0.0471,0.0494,0.0475,0.0364,0.0357,0.0481,0.0427,0,0,0,0,0]}],[{"header":{"parameterUnit":"m.s-1","parameterCategory":2,"la1":30.2991,"la2":30.254,"lo1":-89.0895,"lo2":-89.0444,"dy":0.0017,"dx":0.0017,"nx":28,"ny":28,"refTime":"2024-08-27T09:00:00:Z","depth":"4","parameterNumber":2,"parameterNumberName":"U-component_of_CURRENTS"},"data":[0,0,0,0,0,0,0,0,0,0,0,0,0,0,0,0,0,0,0,0,0,0,0,0,0,0,0,0,0,0,0,0,0,0,0,0,0,0,0,0,0,0,0,0,0,0,0,0,0,0,0,0,0,0,0,0,0,0,-0.1554,-0.1555,0,-0.162,-0.1621,-0.1621,-0.1658,-0.1658,-0.1658,-0.1658,-0.1728,-0.173,-0.1731,0,0,0,0,0,0,0,0,0,0,0,0,0,-0.1467,-0.1468,-0.1554,-0.1555,-0.1556,-0.162,-0.1621,-0.1621,-0.1658,-0.1658,-0.1658,-0.1658,-0.1727,-0.1729,-0.1731,0,0,0,0,0,0,0,0,0,0,0,0,0,-0.1514,-0.1468,-0.1554,-0.1583,-0.1586,-0.162,-0.1621,-0.1622,-0.1657,-0.1658,-0.1658,-0.1658,-0.1727,-0.1729,-0.1732,-0.174,0,0,-0.1739,-0.174,0,0,0,0,0,0,0,0,-0.1512,-0.1517,-0.1577,-0.1581,-0.1584,-0.1632,-0.1616,-0.1662,-0.1657,-0.1629,-0.1658,-0.1659,-0.1697,-0.1702,-0.1711,-0.1743,-0.1746,-0.1739,-0.1741,-0.1742,-0.1743,0,0,0,0,0,0,0,-0.1508,-0.1515,-0.1579,-0.1578,-0.1583,-0.1595,-0.1602,-0.1624,-0.1659,-0.1631,-0.1634,-0.1644,-0.1699,-0.1709,-0.1713,-0.1747,-0.1739,-0.1741,-0.1743,-0.1744,-0.1844,-0.1845,0,0,0,0,0,0,-0.1503,-0.1512,-0.1577,-0.1581,-0.155,-0.1596,-0.1604,-0.1615,-0.1659,-0.1666,-0.1644,-0.1645,-0.1705,-0.171,-0.1716,-0.1786,-0.1742,-0.1744,-0.1746,-0.1843,-0.1844,-0.1846,0,0,0,0,0,0,-0.15,-0.1508,-0.1574,-0.1549,-0.1558,-0.1598,-0.161,-0.1616,-0.1652,-0.1668,-0.1676,-0.1676,-0.1705,-0.1713,-0.1758,-0.1787,-0.1745,-0.1748,-0.1841,-0.1843,-0.1845,-0.1889,0,0,0,0,0,0,-0.1498,-0.1507,-0.1526,-0.1548,-0.1559,-0.1612,-0.161,-0.1618,-0.1657,-0.166,-0.1698,-0.1703,-0.1706,-0.1754,-0.176,-0.1789,-0.1749,-0.184,-0.1842,-0.1844,-0.1886,-0.1892,-0.1897,0,0,0,0,0,-0.1494,-0.1515,-0.1526,-0.1535,-0.158,-0.1613,-0.162,-0.1648,-0.1658,-0.168,-0.1705,-0.1703,-0.1772,-0.1757,-0.1764,-0.1795,-0.1839,-0.1842,-0.1844,-0.1884,-0.1891,-0.1897,0,0,0,0,0,0,-0.1489,-0.1522,-0.1534,-0.1565,-0.1596,-0.162,-0.1645,-0.1663,-0.17,-0.1711,-0.1722,-0.1729,-0.1779,-0.1781,-0.1764,-0.1829,-0.1804,-0.1809,-0.1832,-0.1839,-0.1845,-0.1837,-0.1752,0,0,0,0,0,-0.1496,-0.1521,-0.1551,-0.1579,-0.1595,-0.1625,-0.1647,-0.1668,-0.1697,-0.1715,-0.1741,-0.1766,-0.1791,-0.1811,-0.1832,-0.1871,-0.1852,-0.1894,-0.19,-0.1904,-0.1903,-0.1901,-0.1905,-0.1854,-0.1854,-0.1854,0,0,-0.1503,-0.1523,-0.1539,-0.158,-0.1604,-0.1638,-0.164,-0.1682,-0.1716,-0.1716,-0.1776,-0.1792,-0.1806,-0.1848,-0.187,-0.1857,-0.1908,-0.1908,-0.1912,-0.1908,-0.1904,-0.1908,-0.1913,-0.1856,-0.1856,-0.1855,0,0,-0.1519,-0.1546,-0.1571,-0.16,-0.1644,-0.1664,-0.1682,-0.1724,-0.1751,-0.1804,-0.181,-0.1843,-0.1889,-0.19,-0.191,-0.196,-0.1938,-0.1973,-0.1998,-0.1996,-0.2,-0.2003,-0.1978,-0.1979,-0.1975,-0.1976,-0.1976,0,-0.1529,-0.156,-0.1585,-0.1617,-0.1645,-0.1678,-0.1713,-0.1747,-0.1801,-0.1822,-0.1831,-0.1892,-0.191,-0.1945,-0.1965,-0.1973,-0.1959,-0.1971,-0.2002,-0.2005,-0.2007,-0.1981,-0.1981,-0.1978,-0.1978,-0.1977,-0.1977,0,-0.1555,-0.1593,-0.1611,-0.166,-0.1695,-0.1732,-0.1776,-0.1818,-0.1854,-0.1879,-0.1932,-0.1953,-0.1982,-0.1999,-0.2002,-0.2032,-0.2012,-0.2008,-0.1982,-0.2015,-0.1986,-0.1985,-0.1981,-0.1981,-0.198,-0.1979,0,0,-0.1538,-0.1615,-0.1624,-0.1655,-0.1722,-0.1749,-0.181,-0.1861,-0.1896,-0.1947,-0.1984,-0.203,-0.2036,-0.2047,-0.2054,-0.2059,-0.2069,-0.2047,-0.2046,-0.2017,-0.2049,-0.1916,-0.1902,-0.2072,-0.2072,-0.2073,-0.2019,0,-0.1552,-0.1612,-0.1651,-0.1715,-0.1748,-0.18,-0.185,-0.1904,-0.1946,-0.1992,-0.2016,-0.2055,-0.2056,-0.2073,-0.2081,-0.2076,-0.207,-0.2082,-0.2027,-0.2025,-0.1897,-0.1898,-0.2074,-0.2018,-0.2018,-0.2018,-0.2018,0,-0.1556,-0.1598,-0.1662,-0.1739,-0.1759,-0.1807,-0.188,-0.1928,-0.1993,-0.2025,-0.2061,-0.208,-0.2106,-0.21,-0.2093,-0.2102,-0.208,-0.2067,-0.2064,-0.1922,-0.1889,-0.1981,-0.2016,-0.2016,-0.2016,-0.2016,-0.2016,0,-0.1513,-0.16,-0.1651,-0.168,-0.1775,-0.1817,-0.1868,-0.194,-0.1973,-0.2044,-0.2065,-0.2101,-0.2113,-0.2105,-0.2083,-0.2093,-0.2057,-0.2063,-0.1915,-0.1905,-0.2023,-0.202,-0.2045,-0.2045,-0.2045,-0.2046,-0.2046,0,-0.1492,-0.1535,-0.1642,-0.1668,-0.1726,-0.1803,-0.1861,-0.1915,-0.1984,-0.2006,-0.2073,-0.2079,-0.2116,-0.2101,-0.2083,-0.1981,-0.2051,-0.1906,-0.1879,-0.2042,-0.2042,-0.2021,-0.2019,-0.2043,-0.2044,-0.2044,-0.2045,0,-0.1428,-0.1503,-0.1563,-0.1672,-0.1708,-0.1747,-0.1843,-0.1871,-0.1953,-0.1982,-0.2003,-0.2061,-0.2034,-0.2039,-0.2016,-0.1951,-0.1891,-0.1838,-0.1995,-0.1981,-0.1741,-0.1742,-0.1661,-0.1656,-0.1651,-0.1648,-0.1645,0,-0.1397,-0.1426,-0.1544,-0.1576,-0.163,-0.1701,-0.1739,-0.1839,-0.1862,-0.1946,-0.1939,-0.1956,-0.1972,-0.1816,-0.1855,-0.1782,-0.1766,-0.1721,-0.1744,-0.1717,-0.1701,-0.1709,-0.1716,-0.1638,-0.1636,-0.1635,-0.1634,0,-0.1325,-0.1382,-0.1428,-0.1495,-0.1549,-0.1592,-0.1658,-0.1659,-0.1756,-0.185,-0.181,-0.1783,-0.1744,-0.1716,-0.1662,-0.1624,-0.1747,-0.1675,-0.1684,-0.1705,-0.1688,-0.1678,-0.169,-0.1619,-0.1621,-0.1622,-0.1623,0,-0.1265,-0.1278,-0.1346,-0.1385,-0.1449,-0.1456,-0.1508,-0.1525,-0.1556,-0.1656,-0.1639,-0.1661,-0.1722,-0.1631,-0.1592,-0.153,-0.1511,-0.1466,-0.1486,-0.1503,-0.1477,-0.1433,-0.1248,0,0,0,0,0,-0.1194,-0.1194,-0.1227,-0.1262,-0.1318,-0.135,-0.1436,-0.1491,-0.1587,-0.1509,-0.1568,-0.1526,-0.1461,-0.1485,-0.1384,-0.1521,-0.1519,-0.1398,-0.148,-0.1534,-0.1551,-0.1536,0,0,0,0,0,0,-0.1147,-0.1176,-0.1183,-0.114,-0.1139,-0.118,-0.1226,-0.1297,-0.1268,-0.1373,-0.1343,-0.1426,-0.1384,-0.1479,-0.1347,-0.1351,-0.1369,-0.1427,-0.1422,-0.1524,-0.154,-0.1554,-0.1544,0,0,0,0,0]},{"header":{"parameterUnit":"m.s-1","parameterCategory":2,"la1":30.2991,"la2":30.254,"lo1":-89.0895,"lo2":-89.0444,"dy":0.0017,"dx":0.0017,"nx":28,"ny":28,"refTime":"2024-08-27T09:00:00:Z","depth":"4","parameterNumber":3,"parameterNumberName":"V-component_of_CURRENTS"},"data":[0,0,0,0,0,0,0,0,0,0,0,0,0,0,0,0,0,0,0,0,0,0,0,0,0,0,0,0,0,0,0,0,0,0,0,0,0,0,0,0,0,0,0,0,0,0,0,0,0,0,0,0,0,0,0,0,0,0,-0.0174,-0.0173,0,-0.0136,-0.0136,-0.0135,-0.0103,-0.0103,-0.0103,-0.0102,-0.0018,-0.0016,-0.0014,0,0,0,0,0,0,0,0,0,0,0,0,0,-0.0188,-0.0188,-0.0174,-0.0173,-0.0173,-0.0136,-0.0136,-0.0135,-0.0103,-0.0103,-0.0103,-0.0102,-0.0018,-0.0016,-0.0014,0,0,0,0,0,0,0,0,0,0,0,0,0,-0.0168,-0.0188,-0.0174,-0.0154,-0.0151,-0.0136,-0.0136,-0.0135,-0.0103,-0.0103,-0.0102,-0.0102,-0.0019,-0.0016,-0.0013,-0.0002,0,0,-0.0004,-0.0003,0,0,0,0,0,0,0,0,-0.0169,-0.0168,-0.0157,-0.0155,-0.0153,-0.0125,-0.011,-0.0088,-0.0103,-0.012,-0.0102,-0.0102,-0.005,-0.0045,-0.0037,0.0002,0.0006,-0.0004,-0.0002,-0.0001,0.0,0,0,0,0,0,0,0,-0.0171,-0.0169,-0.0157,-0.0157,-0.0154,-0.0136,-0.0133,-0.0105,-0.0086,-0.0119,-0.0117,-0.0115,-0.0049,-0.004,-0.0035,0.0007,-0.0004,-0.0001,0.0001,0.0002,0.0063,0.0063,0,0,0,0,0,0,-0.018,-0.017,-0.0159,-0.0156,-0.0162,-0.0137,-0.0133,-0.0133,-0.0087,-0.008,-0.0115,-0.0113,-0.0046,-0.0039,-0.0032,-0.0016,-0.0001,0.0002,0.0004,0.0063,0.0063,0.0063,0,0,0,0,0,0,-0.018,-0.0179,-0.016,-0.0163,-0.016,-0.0137,-0.0137,-0.0133,-0.0126,-0.0085,-0.0077,-0.0113,-0.0045,-0.0036,-0.0012,-0.0012,0.0004,0.0006,0.0064,0.0063,0.0063,0.0017,0,0,0,0,0,0,-0.0181,-0.018,-0.0185,-0.0164,-0.016,-0.0156,-0.0138,-0.0132,-0.0125,-0.0123,-0.0081,-0.0072,-0.0044,-0.0016,-0.0009,-0.0008,0.0009,0.0064,0.0063,0.0063,0.0019,0.0015,0.0012,0,0,0,0,0,-0.0182,-0.0192,-0.0186,-0.0185,-0.0168,-0.0157,-0.0153,-0.0134,-0.0126,-0.0126,-0.0098,-0.0074,-0.0013,-0.0014,-0.0005,-0.0003,0.0064,0.0064,0.0063,0.002,0.0016,0.0012,0,0,0,0,0,0,-0.0201,-0.0189,-0.0182,-0.0188,-0.0176,-0.0152,-0.0153,-0.0139,-0.0118,-0.0115,-0.0076,-0.0066,-0.0046,-0.0019,-0.0021,0.0013,0.0029,0.0031,-0.0006,-0.001,-0.0014,-0.0021,0.0011,0,0,0,0,0,-0.0209,-0.0214,-0.0196,-0.0202,-0.0198,-0.0176,-0.0171,-0.0158,-0.0136,-0.0127,-0.0099,-0.0067,-0.0041,-0.0022,0.0003,0.0024,0.0056,0.0031,0.0028,0.0025,0.0024,0.0072,0.0073,0.0061,0.0061,0.0061,0,0,-0.0219,-0.0213,-0.0216,-0.0207,-0.0196,-0.0195,-0.0172,-0.0167,-0.0163,-0.012,-0.0108,-0.0081,-0.004,-0.002,-0.0007,0.0005,0.0043,0.0024,0.0021,0.0023,0.0071,0.0073,0.0074,0.0061,0.0061,0.0061,0,0,-0.0242,-0.0236,-0.0247,-0.024,-0.0229,-0.0213,-0.0214,-0.0193,-0.0181,-0.0167,-0.0136,-0.0108,-0.0071,-0.0038,-0.0017,-0.0023,0.0019,-0.0017,-0.0032,0.0013,0.0015,0.0016,0.005,0.0055,-0.0013,-0.0013,-0.0013,0,-0.0256,-0.0266,-0.0248,-0.0256,-0.0254,-0.0225,-0.0233,-0.0216,-0.019,-0.0179,-0.017,-0.0111,-0.0078,-0.0042,-0.0046,-0.0029,-0.0002,-0.0021,0.0009,0.0011,0.0014,0.0048,0.0054,-0.0015,-0.0015,-0.0015,-0.0014,0,-0.0282,-0.0292,-0.0298,-0.0297,-0.0291,-0.0295,-0.027,-0.0261,-0.0243,-0.0221,-0.019,-0.0145,-0.0107,-0.0093,-0.007,-0.0037,-0.0024,-0.0006,0.0018,0.0012,0.0048,0.0056,-0.0018,-0.0018,-0.0017,-0.0016,0,0,-0.031,-0.0316,-0.0321,-0.0331,-0.0314,-0.0315,-0.0305,-0.0287,-0.0281,-0.0247,-0.0231,-0.0181,-0.0154,-0.0128,-0.0091,-0.0049,-0.0011,-0.0025,-0.0021,0.0006,0.0082,0.0075,0.0083,0.0012,0.0014,0.0015,0.0097,0,-0.0338,-0.0367,-0.0357,-0.0381,-0.0392,-0.0364,-0.0359,-0.0337,-0.0309,-0.0286,-0.0228,-0.0201,-0.0167,-0.015,-0.0103,-0.0034,0.0007,-0.0036,0.0086,0.0089,0.0082,0.0091,0.0018,0.0103,0.0104,0.0106,0.0107,0,-0.0367,-0.0384,-0.0416,-0.0427,-0.0429,-0.0436,-0.0422,-0.0413,-0.0365,-0.0342,-0.0295,-0.025,-0.0185,-0.0158,-0.0036,-0.0065,0.0001,0.0056,0.0061,0.0077,0.0096,0.0113,0.012,0.0119,0.0118,0.0117,0.0117,0,-0.0399,-0.0426,-0.0455,-0.0459,-0.0462,-0.047,-0.0468,-0.0434,-0.0427,-0.0377,-0.0362,-0.0276,-0.0234,-0.0137,-0.0023,-0.0028,0.0112,0.0123,0.018,0.0181,0.0183,0.018,0.0208,0.0208,0.0208,0.0208,0.0207,0,-0.043,-0.0457,-0.0478,-0.0495,-0.053,-0.0514,-0.0533,-0.0514,-0.0482,-0.0471,-0.0397,-0.0359,-0.0226,-0.013,-0.0029,0.0099,0.0113,0.018,0.0205,0.016,0.0154,0.0188,0.0184,0.0211,0.021,0.0209,0.0209,0,-0.0458,-0.0472,-0.0512,-0.0535,-0.0548,-0.0574,-0.0589,-0.0593,-0.0557,-0.0537,-0.0524,-0.0415,-0.0287,-0.0152,0.0013,0.0087,0.021,0.0251,0.0187,0.0207,0.0248,0.0241,0.0321,0.0321,0.0322,0.0322,0.0322,0,-0.0474,-0.0498,-0.0552,-0.0584,-0.0601,-0.0636,-0.0656,-0.0637,-0.0631,-0.0565,-0.055,-0.0433,-0.0347,-0.0113,0.0022,0.0212,0.0237,0.0292,0.0274,0.0245,0.0262,0.0254,0.0247,0.0323,0.0323,0.0323,0.0323,0,-0.0503,-0.0526,-0.0559,-0.0629,-0.0669,-0.0707,-0.0728,-0.0726,-0.0688,-0.0662,-0.0554,-0.0429,-0.0285,-0.0108,0.0039,0.0174,0.0251,0.0297,0.0296,0.0281,0.0249,0.0263,0.0256,0.0325,0.0325,0.0325,0.0324,0,-0.0523,-0.0557,-0.0608,-0.0663,-0.0721,-0.0752,-0.0761,-0.0734,-0.0716,-0.0628,-0.0593,-0.0429,-0.0329,-0.0127,0.001,0.014,0.0169,0.0201,0.0207,0.0206,0.0145,0.0086,0.0137,0,0,0,0,0,-0.0538,-0.0578,-0.0638,-0.0697,-0.0752,-0.0778,-0.0794,-0.0786,-0.0749,-0.0675,-0.0627,-0.0485,-0.0264,-0.0163,-0.0032,0.0,0.0173,0.0154,0.0208,0.0333,0.0332,0.0278,0,0,0,0,0,0,-0.0549,-0.0608,-0.0638,-0.0708,-0.0749,-0.0799,-0.0807,-0.0782,-0.0724,-0.0669,-0.0543,-0.0469,-0.0249,-0.0338,-0.0034,0.0005,0.0054,0.0262,0.0265,0.0334,0.0333,0.0331,0.0276,0,0,0,0,0]}]]